Home > Weather > Oradea > Past weeks

Flag for Romania Past Weather in Oradea, Romania — Yesterday and Last 2 Weeks

Now
86 °F

Passing clouds.


Feels Like: 83 °F
Forecast: 60 / 91 °F
Wind: 3 mph from North

Location: Oradea Airport

Current Time: Aug 28, 2016 at 3:23:03 PM

Latest Report: Aug 28, 2016 at 2:30 PM


Visibility: N/A

Pressure: 30.12 "Hg

Humidity: 27%

Dew Point: 48 °F

Location of OradeaLocation

Past Weather in Oradea — Graph

°F

Oradea Temperature Yesterday

Maximum temperature yesterday: 86 °F (at 4:00 PM)
Minimum temperature yesterday: 57 °F (at 7:00 AM)
Average temperature yesterday: 72 °F

High & Low Weather Summary for the Past Weeks

 TemperatureHumidityPressure
High88 °F (Aug 21, 12:30 PM)100% (Aug 18, 5:00 AM)30.27 "Hg (Aug 18, 5:00 AM)
Low52 °F (Aug 18, 5:00 AM)25% (Aug 19, 2:30 PM)29.86 "Hg (Aug 17, 6:00 AM)
Average70 °F64%30.08 "Hg
* Reported Aug 13 1:00 PM — Aug 28 1:00 PM, Oradea, Weather by CustomWeather, © 2016

Note: Actual official high and low records may vary slightly from our data, if they occured in-between our weather recording intervals... More about our weather records

Advertising

Oradea Weather History for the Previous 24 Hours

Scroll right to see more
 ConditionsComfort  
Time TempWeatherWind HumidityBarometerVisibility
1:00 PM
Sun, Aug 28
84 °FSunny.2 mph29%30.12 "Hg10 mi
12:00 PM82 °FPassing clouds.5 mph35%30.15 "HgN/A
11:30 AM81 °FPassing clouds.3 mph37%30.15 "HgN/A
11:00 AM79 °FPassing clouds.3 mph39%30.15 "HgN/A
10:30 AM77 °FPassing clouds.2 mph47%30.15 "HgN/A
10:00 AM73 °FPassing clouds.6 mph53%30.15 "HgN/A
9:30 AM70 °FSunny.6 mph57%30.15 "Hg10 mi
9:00 AM68 °FSunny.7 mph56%30.15 "Hg10 mi
8:30 AM64 °FPassing clouds.6 mph64%30.15 "HgN/A
8:00 AM61 °FSunny.8 mph72%30.15 "Hg10 mi
7:30 AM59 °FClear.7 mph77%30.15 "Hg10 mi
7:00 AM57 °FClear.7 mph82%30.15 "Hg10 mi
6:30 AM59 °FCool.7 mph77%30.15 "HgN/A
6:00 AM57 °FCool.7 mph82%30.15 "HgN/A
5:30 AM59 °FCool.7 mph77%30.15 "HgN/A
5:00 AM59 °FCool.8 mph77%30.15 "HgN/A
4:00 AM59 °FCool.7 mph82%30.15 "HgN/A
3:00 AM59 °FCool.8 mph82%30.15 "HgN/A
2:00 AM61 °FCool.8 mph83%30.15 "HgN/A
1:00 AM64 °FMild.8 mph73%30.15 "HgN/A
12:00 AM63 °FMild.5 mph83%30.15 "HgN/A
11:00 PM
Sat, Aug 27
66 °FMild.6 mph73%30.15 "HgN/A
10:30 PM66 °FMild.No wind78%30.15 "HgN/A
10:00 PM64 °FMild.No wind83%30.15 "HgN/A
9:30 PM66 °FMild.No wind78%30.15 "HgN/A
9:00 PM70 °FSunny.No wind69%30.15 "Hg10 mi
8:30 PM73 °FSunny.No wind61%30.15 "Hg10 mi
8:00 PM82 °FSunny.No wind35%30.15 "Hg10 mi
7:30 PM82 °FSunny.No wind35%30.15 "Hg10 mi
7:00 PM82 °FSunny.3 mph32%30.15 "Hg10 mi
6:30 PM84 °FSunny.1 mph29%30.15 "Hg10 mi
6:00 PM84 °FPassing clouds.2 mph29%30.15 "HgN/A
5:30 PM84 °FPassing clouds.7 mph29%30.15 "HgN/A
5:00 PM84 °FPassing clouds.5 mph29%30.15 "HgN/A
4:30 PM84 °FSunny.5 mph29%30.18 "Hg10 mi
4:00 PM86 °FSunny.2 mph27%30.18 "Hg10 mi
3:30 PM84 °FPassing clouds.5 mph29%30.18 "HgN/A
3:00 PM84 °FPassing clouds.6 mph31%30.21 "HgN/A
Weather by CustomWeather, © 2016

See weather overviewHow to use our weather pages